sat.trackr.live / text

‹ back to catalog

STARLINK-34441

NORAD 64430 · 2025-129U

PAYLOAD ACTIVE UNKNOWN

§ Identity

Operator
Country
US
Launch date
2025-06-17
Launch site
AFWTR
Launch vehicle
Mass (kg)
RCS (m²)

Purposes: comms

External: N2YO · Heavens-Above · Gunter

§ Orbital elements

Epoch: 2026-09-20T12:12:35.303616Z

Period
94.14 min
Inclination
70.0008°
Eccentricity
0.0003318
Mean motion
15.29584349 rev/d
Perigee alt
474.8 km
Apogee alt
479.3 km
Semi-major
6,855.2 km
B*
2.3794e-4
RAAN
301.0820°
Arg perigee
272.8902°
Mean anomaly
87.1894°
Rev number
7,052

§ Raw data

STARLINK-344411 64430U 25129U   26263.50874194  .00006719  00000+0  23794-3 0  99932 64430  70.0008 301.0820 0003318 272.8902  87.1894 15.29584349 70524

JSON: /api/v1/satellites/64430 · /tle

For live sub-satellite position, see the globe view (requires WebGL).

§ Visibility from observer

Set your observer location to see the next 7 days of passes ≥ 10°. The values pass through the URL so the page stays shareable.

No JS? Fill the form by hand. The geolocation button needs JavaScript.